EXPRESS-AM5

Last updated on Fri Dec 19 2025 00:02:51 GMT+0000 (Coordinated Universal Time)

1 39487U 13077A 25352.65301522 .00000000 00000+0 00000+0 0 9998 2 39487 0.0226 359.2364 0001732 320.2357 143.1578 1.00268651 44556
UTC large
Height (km)
Speed (km/s)
/
Latitude / Longitude
Inclination (degrees)
Orbital Period (minutes)
Azimuth
Elevation
Range (km)
Doppler Factor

Next 0 passes for location: London (51.5072 / 0.1276)

Sorry there are no passes over London.